RYR393A LFMP-EGSS

Flight info

Callsign RYR393A
Flight time N/A
Altitude 34000
Route ORBIL G36 GAI DCT POKET DCT TUPAR UN861 DIKRO UM185 TELTU
Aircraft B738/M-SDE2E3FGHIRWXY/LB1

Departure

Time 2026-04-15 16:48
Airport Perpignan-Rivesaltes (Llabanère) Airport (LFMP)

Arrival

Time N/A
Airport London Stansted Airport (EGSS)
Time Latitude Longitude Altitude Speed Heading
2026-04-15 16:45 42.73949 2.87161 144 ft 9 kts 150°
2026-04-15 16:45 42.73891 2.87208 144 ft 11 kts 150°
2026-04-15 16:45 42.73810 2.87275 144 ft 16 kts 148°
2026-04-15 16:46 42.73718 2.87352 144 ft 15 kts 147°
2026-04-15 16:46 42.73629 2.87427 143 ft 15 kts 147°
2026-04-15 16:46 42.73618 2.87546 142 ft 14 kts 60°
2026-04-15 16:46 42.73663 2.87631 142 ft 6 kts 17°
2026-04-15 16:47 42.73680 2.87623 142 ft 0 kts 329°
2026-04-15 16:47 42.73684 2.87620 142 ft 0 kts 328°
2026-04-15 16:47 42.73692 2.87613 142 ft 9 kts 328°
2026-04-15 16:47 42.74020 2.87340 142 ft 102 kts 328°
2026-04-15 16:48 42.74854 2.86642 273 ft 169 kts 328°
2026-04-15 16:48 42.75924 2.85803 1081 ft 192 kts 329°
2026-04-15 16:48 42.77113 2.84908 2106 ft 197 kts 330°
2026-04-15 16:48 42.78368 2.83895 2699 ft 225 kts 328°
2026-04-15 16:49 42.79736 2.82716 3551 ft 237 kts 327°
2026-04-15 16:49 42.81145 2.81501 4583 ft 247 kts 327°
2026-04-15 16:49 42.82645 2.80209 5547 ft 260 kts 328°
2026-04-15 16:49 42.84192 2.78881 6748 ft 264 kts 328°
2026-04-15 16:50 42.85765 2.77538 7893 ft 269 kts 328°
2026-04-15 16:50 42.87376 2.76168 8947 ft 275 kts 328°
2026-04-15 16:50 42.89016 2.74777 9939 ft 280 kts 328°
2026-04-15 16:50 42.90722 2.73333 10386 ft 301 kts 328°
2026-04-15 16:51 42.92579 2.71762 10588 ft 326 kts 328°
2026-04-15 16:51 42.94578 2.70072 10852 ft 347 kts 328°
2026-04-15 16:51 42.96635 2.68329 11389 ft 357 kts 328°
2026-04-15 16:51 42.98764 2.66525 12123 ft 361 kts 328°
2026-04-15 16:52 43.00904 2.64710 12906 ft 362 kts 328°
2026-04-15 16:52 43.03057 2.62882 13639 ft 365 kts 328°
2026-04-15 16:52 43.05232 2.61034 14332 ft 369 kts 328°
2026-04-15 16:52 43.07426 2.59169 15058 ft 372 kts 328°
2026-04-15 16:53 43.09634 2.57289 15699 ft 376 kts 328°
2026-04-15 16:53 43.11865 2.55389 16365 ft 379 kts 328°
2026-04-15 16:53 43.14084 2.53497 17013 ft 381 kts 328°
2026-04-15 16:53 43.16350 2.51565 17614 ft 385 kts 328°
2026-04-15 16:54 43.18639 2.49612 18227 ft 388 kts 328°
2026-04-15 16:54 43.20939 2.47642 18828 ft 391 kts 328°
2026-04-15 16:54 43.23258 2.45650 19365 ft 395 kts 328°
2026-04-15 16:54 43.25596 2.43637 19923 ft 398 kts 327°
2026-04-15 16:55 43.27957 2.41604 20400 ft 402 kts 327°
2026-04-15 16:55 43.30338 2.39553 20894 ft 406 kts 327°
2026-04-15 16:55 43.32738 2.37483 21408 ft 408 kts 327°
2026-04-15 16:55 43.35143 2.35406 22112 ft 404 kts 327°
2026-04-15 16:56 43.37490 2.33364 22983 ft 397 kts 327°
2026-04-15 16:56 43.39797 2.31344 23498 ft 399 kts 326°
2026-04-15 16:56 43.42159 2.29272 23897 ft 405 kts 326°
2026-04-15 16:56 43.44549 2.27178 24318 ft 409 kts 326°
2026-04-15 16:57 43.46954 2.25069 24798 ft 411 kts 326°
2026-04-15 16:57 43.49363 2.22930 25252 ft 413 kts 326°
2026-04-15 16:57 43.51776 2.20765 25675 ft 415 kts 325°
2026-04-15 16:57 43.54208 2.18579 26093 ft 418 kts 325°
2026-04-15 16:58 43.56648 2.16383 26502 ft 420 kts 325°
2026-04-15 16:58 43.59104 2.14173 26901 ft 422 kts 325°
2026-04-15 16:58 43.61578 2.11946 27253 ft 425 kts 325°
2026-04-15 16:58 43.64063 2.09710 27612 ft 427 kts 325°
2026-04-15 16:59 43.66561 2.07460 27968 ft 429 kts 325°
2026-04-15 16:59 43.69068 2.05199 28322 ft 431 kts 324°
2026-04-15 16:59 43.71591 2.02921 28651 ft 434 kts 324°
2026-04-15 16:59 43.74111 2.00705 28990 ft 436 kts 326°
2026-04-15 17:00 43.76692 1.98492 29336 ft 438 kts 326°
2026-04-15 17:00 43.79290 1.96280 29683 ft 438 kts 326°
2026-04-15 17:00 43.81884 1.94066 30083 ft 438 kts 325°
2026-04-15 17:00 43.84468 1.91849 30562 ft 435 kts 325°
2026-04-15 17:01 43.87034 1.89639 31003 ft 433 kts 325°
2026-04-15 17:01 43.89586 1.87434 31393 ft 432 kts 325°